User: anonymous   Login
Location: Asheville, NC
(35.6000°N, 82.5500°W)
Time: 14:58:07
(UTC-05:00)
Language:

PRISM - Orbit

View from above orbital plane
View from above orbital plane
View from above satellite
View from above satellite

Ground track
Ground track

The orbit data is extracted from the following two-line orbital elements,

1 33493U 09002B   18018.35714845 -.00000077  00000-0 -11641-5 0  9992
2 33493  98.1456 274.5805 0016585  89.8425 270.4673 14.96039886487944
Epoch (UTC): 18 January 2018 08:34:17
Eccentricity: 0.0016585
inclination: 98.1456°
perigee height: 567 km
apogee height: 590 km
right ascension of ascending node: 274.5805°
argument of perigee: 89.8425°
revolutions per day: 14.96039886
mean anomaly at epoch: 270.4673°
orbit number at epoch: 48794

The dashed part of the orbit path shows where the satellite is in the earth's shadow,  

DLR